Total_Precipitation_Accumulation
0.62 0.50 0.15 0.16 0.08 0.03 0.01 0.00 0.00 0.00 0.00 0.00 0.00 0.00 0.00 0.00 0.00 0.00 0.00 0.01 0.02 0.06 0.04 0.04 0.04 0.10 0.15 0.20 0.16 0.12 0.13 0.15 0.32 0.39 0.43 0.65 0.37 0.25 0.21 0.40 0.49 0.43 0.81
1.16 0.77 0.88 0.38 0.10 0.05 0.02 0.01 0.01 0.00 0.01 0.00 0.00 0.00 0.00 0.01 0.01 0.01 0.01 0.03 0.04 0.05 0.05 0.04 0.07 0.12 0.14 0.14 0.06 0.05 0.05 0.11 0.14 0.20 0.45 0.74 0.46 0.38 0.30 0.41 0.55 0.62 0.68
1.63 1.11 1.16 1.30 0.69 0.32 0.12 0.05 0.02 0.02 0.02 0.02 0.02 0.02 0.03 0.03 0.03 0.03 0.02 0.04 0.09 0.12 0.12 0.10 0.15 0.16 0.11 0.05 0.04 0.05 0.03 0.04 0.06 0.18 0.58 0.60 0.68 0.84 0.54 0.46 0.54 0.65 0.50
1.09 0.72 1.42 1.51 1.17 0.82 0.46 0.19 0.08 0.04 0.04 0.02 0.02 0.06 0.08 0.09 0.11 0.08 0.06 0.05 0.09 0.15 0.18 0.16 0.20 0.19 0.06 0.02 0.02 0.03 0.02 0.02 0.04 0.17 0.54 0.78 0.74 1.02 1.02 1.05 0.95 0.64 0.37
1.10 0.53 0.94 1.36 1.41 1.05 0.62 0.38 0.18 0.09 0.05 0.03 0.04 0.06 0.04 0.12 0.11 0.18 0.17 0.05 0.08 0.21 0.30 0.27 0.35 0.19 0.04 0.01 0.00 0.01 0.02 0.02 0.06 0.26 0.46 0.93 0.87 1.19 1.16 1.13 1.23 1.27 0.93
1.42 0.99 0.92 1.48 1.80 2.24 1.43 0.78 0.43 0.21 0.06 0.06 0.07 0.05 0.20 0.23 0.32 0.51 0.45 0.23 0.24 0.30 0.44 0.45 0.43 0.15 0.03 0.00 0.00 0.03 0.06 0.06 0.13 0.45 0.70 1.61 1.16 1.40 1.13 0.90 0.69 0.78 0.87
2.25 2.01 1.35 2.13 2.90 4.10 4.62 3.36 2.23 1.26 0.75 0.51 0.52 0.65 0.51 0.44 0.84 0.71 0.47 0.47 0.43 0.38 0.38 0.55 0.46 0.14 0.08 0.03 0.03 0.04 0.04 0.12 0.31 1.54 0.80 0.93 1.58 1.23 1.14 0.99 1.04 1.18 0.91
3.15 2.80 2.72 2.27 2.72 3.64 5.98 6.17 5.53 5.61 3.44 1.63 1.22 1.17 1.17 1.07 0.84 0.53 0.44 0.62 0.40 0.33 0.43 0.31 0.15 0.08 0.07 0.10 0.08 0.04 0.01 0.11 0.25 0.57 0.49 0.55 0.70 1.08 0.87 0.84 1.01 1.16 1.13
5.65 5.53 4.89 3.88 3.01 2.30 3.00 4.31 4.66 4.21 4.55 3.92 2.78 1.83 2.38 1.86 1.29 0.66 0.49 0.63 0.82 0.75 0.57 0.19 0.20 0.23 0.15 0.18 0.22 0.11 0.05 0.08 0.21 0.47 0.45 0.46 0.93 1.01 0.75 0.63 0.62 0.60 0.55
8.06 7.52 5.83 4.87 3.16 1.54 1.91 2.21 2.57 3.89 2.86 2.43 3.26 2.85 2.21 1.65 1.26 1.03 0.89 0.92 0.94 0.86 1.04 1.24 1.04 0.92 0.59 0.40 0.36 0.27 0.06 0.04 0.20 0.46 0.58 0.37 0.75 1.13 0.82 0.78 0.67 0.55 0.51
6.02 6.49 6.30 4.37 3.01 1.54 1.02 1.13 1.13 2.31 2.94 2.50 1.39 2.25 2.28 1.65 1.42 1.38 1.24 1.33 1.62 1.48 1.36 0.91 0.69 0.50 0.43 0.42 0.40 0.43 0.34 0.16 0.21 0.38 0.44 0.69 0.95 1.11 1.17 0.89 0.59 0.61 0.65
3.38 3.58 5.26 4.50 3.12 2.22 1.67 1.21 0.81 1.15 2.07 2.72 1.76 1.18 1.51 1.48 1.23 1.28 1.41 1.36 1.37 1.41 1.13 0.86 0.73 0.56 0.54 0.39 0.36 0.42 0.40 0.38 0.27 0.26 0.18 0.40 0.76 0.97 0.81 0.70 0.58 0.49 0.59
1.24 1.56 2.39 3.64 4.17 3.19 1.94 1.43 0.78 0.90 1.61 2.67 2.42 1.11 1.09 1.26 1.16 0.87 0.79 1.11 1.13 1.46 1.16 1.13 0.80 0.60 0.51 0.40 0.35 0.33 0.35 0.35 0.30 0.33 0.43 0.52 0.63 0.85 0.68 0.65 0.63 0.67 0.67
0.71 0.94 1.85 2.26 2.29 2.61 2.75 1.65 0.86 0.58 1.19 1.92 2.42 1.11 1.05 0.89 1.03 0.61 0.37 0.51 0.75 0.88 1.08 1.53 1.44 1.04 0.96 0.69 0.54 0.54 0.52 0.66 0.70 0.55 0.66 0.76 0.72 1.01 0.83 0.73 0.65 0.90 0.84
0.46 0.69 1.30 1.16 0.93 1.10 1.90 2.50 1.47 1.01 1.16 1.68 2.30 1.13 0.73 0.62 0.73 0.46 0.28 0.34 0.39 0.45 0.68 0.92 1.20 1.20 1.23 1.17 1.26 1.16 0.94 0.74 0.85 1.00 1.09 1.42 1.31 1.12 1.13 1.06 0.81 0.87 0.70
0.38 0.57 0.93 0.74 0.81 0.81 1.13 1.81 2.07 1.48 1.52 1.84 1.93 1.27 0.96 0.76 0.70 0.58 0.38 0.36 0.35 0.39 0.55 0.80 1.16 1.27 1.34 1.52 1.29 0.96 0.94 0.67 0.67 1.06 1.75 1.84 1.42 1.37 1.15 1.27 1.46 1.29 1.05
0.41 0.62 1.03 1.27 0.63 0.83 0.95 1.23 1.75 1.53 1.33 1.67 2.01 1.77 1.23 1.03 0.67 0.72 0.69 0.63 0.51 0.47 0.56 0.84 1.12 1.26 1.05 1.00 1.09 1.32 1.55 1.46 0.89 0.59 0.73 0.86 0.91 0.95 1.05 1.39 1.57 1.77 1.91
0.37 0.45 0.95 1.53 0.96 0.87 0.88 1.05 1.35 1.40 1.27 1.11 1.32 1.63 1.49 1.31 1.12 0.93 0.70 0.77 0.89 0.77 0.68 0.82 1.06 1.61 1.49 1.09 0.74 0.75 1.03 1.16 1.04 1.09 0.82 0.66 0.64 0.79 1.17 1.02 1.78 2.45 2.30
0.22 0.33 0.72 1.03 1.20 1.16 0.94 0.95 0.92 0.91 1.14 0.82 0.93 1.01 1.27 1.74 1.74 1.34 1.25 1.33 1.27 1.29 1.36 1.60 1.81 1.93 1.54 1.22 0.88 0.66 0.62 0.59 0.47 0.43 0.45 0.46 0.45 0.44 0.44 0.55 0.78 1.06 0.95
0.17 0.43 0.86 0.92 1.08 1.10 0.80 0.66 0.64 0.74 0.81 0.88 0.81 0.84 1.08 1.15 1.08 1.16 1.37 1.60 1.59 1.46 1.19 0.99 1.10 1.25 1.23 1.08 0.98 0.69 0.62 0.43 0.32 0.23 0.24 0.34 0.37 0.52 0.51 0.42 0.57 0.63 0.58
0.12 0.37 0.48 0.72 0.89 0.64 0.40 0.34 0.39 0.47 0.53 0.87 0.91 0.64 0.87 1.06 1.01 0.87 1.15 1.98 2.15 1.36 0.91 0.94 1.22 1.22 1.09 0.96 1.31 1.03 0.74 0.48 0.33 0.22 0.18 0.25 0.26 0.32 0.63 0.66 0.48 0.56 0.69
0.16 0.38 0.47 0.32 0.27 0.31 0.32 0.20 0.16 0.21 0.33 0.66 0.99 0.74 0.78 0.87 0.84 0.95 0.74 0.85 1.41 1.73 1.56 1.10 1.09 1.35 1.24 1.18 1.29 1.24 1.10 1.09 0.65 0.36 0.33 0.22 0.20 0.29 0.27 0.42 0.54 0.44 0.54
0.08 0.12 0.24 0.13 0.07 0.07 0.12 0.16 0.17 0.20 0.37 1.08 1.38 1.06 0.80 0.85 0.83 0.90 0.84 0.74 0.89 1.53 1.57 1.19 0.83 0.96 1.35 1.30 1.20 1.17 1.11 0.76 0.55 0.34 0.34 0.26 0.21 0.20 0.23 0.25 0.28 0.33 0.31
0.03 0.05 0.23 0.13 0.06 0.05 0.06 0.10 0.13 0.18 0.20 0.54 1.07 0.98 0.80 1.10 1.05 0.91 1.05 1.05 0.91 0.88 1.19 1.17 0.95 0.86 1.34 1.22 1.75 1.19 0.77 0.73 0.99 0.75 0.53 0.46 0.43 0.29 0.24 0.35 0.36 0.28 0.30
0.06 0.08 0.20 0.16 0.16 0.09 0.12 0.19 0.34 0.27 0.21 0.30 0.94 1.28 1.04 1.09 1.27 1.29 1.23 1.33 1.33 1.37 1.01 1.50 1.41 1.29 1.40 1.09 0.66 0.97 1.21 1.04 1.27 1.39 0.94 0.60 0.68 0.50 0.44 0.43 0.60 0.46 0.41
0.02 0.11 0.19 0.15 0.24 0.26 0.31 0.29 0.34 0.38 0.29 0.28 0.58 1.13 1.42 1.30 1.34 1.33 1.33 1.32 1.22 1.21 1.31 1.51 1.86 1.82 1.82 1.58 1.17 1.08 1.01 1.00 0.77 1.16 1.30 0.88 0.80 0.70 0.67 1.03 0.89 0.78 0.69